Theta_e
338 336 333 334 332 329 321 322 320 316 320 326 324 324 322 321 322 318 317 319 318 315 312 310 308 307 306 306 306 306 306 306 307 308 309 312 313 315
338 336 335 333 330 330 322 317 315 319 317 324 324 322 320 320 320 315 316 318 315 312 310 307 306 305 304 304 304 305 305 305 305 306 309 310 312 313
332 335 335 334 330 329 326 319 316 322 321 320 321 318 317 316 315 315 314 311 311 311 309 305 304 304 304 304 304 304 304 303 304 306 307 308 309 311
329 330 331 336 331 328 326 321 319 323 321 319 317 317 315 314 313 310 308 308 308 311 307 304 304 304 303 303 303 302 301 301 302 303 305 305 306 308
328 328 329 330 327 328 327 323 321 326 323 319 318 318 315 313 311 310 309 309 309 311 306 305 304 303 303 303 302 301 301 301 301 302 303 303 304 304
328 327 327 327 327 326 327 325 325 325 321 319 318 315 313 313 311 308 307 308 307 309 305 304 305 303 303 302 302 301 301 300 300 301 301 301 301 302
327 327 326 326 326 325 326 323 324 325 323 320 316 315 312 310 309 310 308 307 307 304 301 301 299 297 298 303 300 300 299 300 300 301 301 301 300 301
322 325 326 324 323 318 320 319 322 326 324 321 318 315 315 313 312 310 308 305 304 308 302 300 300 298 300 300 300 299 298 300 300 301 301 301 301 300
315 318 323 327 323 326 317 317 317 316 316 326 322 321 316 315 313 310 309 307 301 305 303 302 300 297 300 298 300 298 297 297 298 299 299 301 300 299
313 315 317 321 325 324 324 322 323 323 321 321 324 324 324 318 315 313 311 305 304 305 305 302 299 299 301 299 300 299 298 298 298 299 299 300 299 299
309 311 314 318 314 308 323 323 321 323 317 313 311 309 309 308 313 311 307 305 303 304 302 300 297 300 296 299 299 300 299 298 299 299 300 301 299 299
304 308 308 309 307 304 316 321 319 321 322 322 317 309 311 310 309 317 312 309 302 302 302 301 297 297 293 298 300 300 295 299 299 300 301 300 299 303
304 305 309 303 301 300 303 322 320 321 319 322 322 317 317 319 317 318 316 316 307 307 305 303 297 296 294 296 299 299 294 295 295 298 300 299 298 299
301 303 307 303 300 299 300 304 304 307 323 322 321 319 318 320 319 320 319 319 316 314 308 304 299 297 294 295 293 293 294 293 297 297 299 301 300 298
301 301 299 298 297 299 299 301 301 313 318 318 318 318 319 321 323 321 316 313 310 309 311 306 302 299 298 295 293 294 289 292 299 298 298 297 298 297
296 296 299 301 301 305 306 303 307 311 315 318 319 320 320 319 319 320 314 310 307 303 304 304 302 301 299 297 296 291 289 291 299 296 295 294 296 296
295 294 297 305 306 307 309 310 310 311 312 316 318 319 319 318 319 318 315 310 306 303 299 300 301 301 299 298 294 290 291 295 296 295 294 292 294 294
294 295 295 297 305 306 306 307 310 309 311 315 316 319 319 318 318 318 315 313 307 305 298 298 298 298 297 298 299 290 290 293 294 295 293 292 293 294
293 293 294 297 297 307 306 307 307 310 312 312 314 317 318 319 314 318 315 312 309 306 302 300 300 299 294 293 292 296 292 293 293 293 293 292 293 293
292 293 294 297 298 301 304 304 308 311 312 314 313 314 318 318 318 318 316 313 310 307 302 301 301 302 300 295 291 289 293 296 293 291 289 291 292 295
292 294 295 297 299 301 305 306 305 308 306 309 310 315 315 318 318 319 316 306 305 307 303 301 303 294 296 294 291 288 291 297 296 292 291 289 289 292
292 294 296 297 299 300 304 303 303 304 305 306 307 309 314 316 316 318 318 311 309 308 307 305 299 299 299 295 291 288 288 291 295 296 296 294 290 290
294 294 296 297 298 300 303 304 302 303 304 305 307 310 312 314 314 317 318 313 312 309 307 302 301 300 300 296 291 289 288 289 291 291 289 295 297 297
Wind_Speed
3 6 4 4 4 5 5 5 6 4 3 4 3 2 3 4 5 5 4 9 9 8 6 4 3 1 3 3 5 6 6 7 8 10 12 14 16 18
3 4 5 3 5 3 3 4 3 5 4 2 2 3 3 4 4 4 3 6 7 7 6 4 2 1 4 5 6 6 7 7 9 9 10 12 15 17
4 4 6 5 4 4 3 2 2 4 7 2 3 3 3 5 4 2 4 2 2 6 6 6 2 3 4 4 5 6 6 8 8 8 9 11 14 19
6 5 4 1 4 1 2 5 4 5 6 9 4 3 3 4 5 4 3 3 2 6 6 4 2 2 2 3 4 5 5 6 7 8 9 11 14 18
8 5 0 4 2 2 1 5 3 2 8 8 6 3 2 4 3 2 3 3 4 8 8 5 3 2 3 2 4 3 4 5 8 9 10 12 13 16
4 4 4 3 5 3 3 5 5 5 7 9 5 5 2 3 3 3 3 2 3 4 6 5 5 5 4 3 3 5 4 4 7 9 11 12 12 15
2 5 6 6 9 10 7 4 6 6 8 9 8 4 5 4 8 4 5 3 4 4 3 2 2 2 3 6 4 6 7 6 6 8 11 11 10 11
5 6 9 11 14 12 13 10 9 12 11 8 8 10 9 7 7 6 5 5 5 5 4 3 4 3 3 3 5 7 5 8 8 9 12 11 9 10
6 6 6 6 12 16 12 13 14 13 7 10 13 11 9 12 12 9 9 7 4 4 4 2 3 3 3 3 7 9 5 8 10 11 13 13 8 9
6 7 8 10 9 13 15 10 12 12 6 8 8 10 9 13 15 11 11 5 3 2 3 3 2 3 3 3 8 10 7 8 11 11 12 10 7 6
7 7 7 10 11 13 12 15 16 11 8 17 4 5 6 10 10 9 8 7 3 3 4 3 3 2 1 2 3 10 8 7 9 10 13 11 5 6
7 8 9 10 13 13 12 14 12 12 12 9 9 7 7 11 17 12 10 11 4 2 6 5 3 3 1 2 2 3 3 4 6 10 16 17 9 3
8 5 6 10 13 14 14 12 16 13 11 9 11 2 2 5 10 8 12 10 6 3 7 6 4 3 2 2 1 2 1 2 2 4 12 15 14 9
8 5 7 15 13 13 9 13 11 7 10 10 12 12 9 5 8 10 11 6 1 2 14 6 5 5 4 3 3 2 1 2 2 3 4 6 6 12
4 9 14 17 16 12 11 13 11 8 6 8 9 12 12 12 9 7 4 6 7 5 11 3 5 6 3 4 5 4 4 2 3 4 6 7 5 4
8 10 12 11 11 10 5 5 5 6 8 7 7 7 8 6 9 9 6 5 4 3 5 2 6 6 3 2 4 4 3 3 3 4 6 6 5 6
7 7 7 7 6 8 7 5 4 5 6 6 5 5 6 9 10 10 9 8 5 8 4 3 5 7 5 4 4 3 4 4 3 4 4 4 6 5
5 7 8 7 7 8 6 6 6 7 8 7 7 9 9 9 10 9 9 10 11 8 6 5 7 6 3 5 6 5 3 5 3 5 3 4 4 5
8 8 8 7 6 8 7 7 6 6 9 8 8 7 8 8 9 10 12 10 10 10 9 8 9 8 4 4 3 7 6 4 4 4 3 4 4 4
8 9 8 7 6 7 4 4 4 5 7 7 7 6 8 9 11 13 14 13 12 11 9 8 8 8 7 9 6 1 7 9 5 5 4 4 4 9
7 8 9 8 7 6 5 4 4 5 4 5 4 4 6 8 11 14 15 17 14 11 14 13 10 8 8 5 5 3 3 10 6 8 6 5 3 2
7 8 9 8 7 7 4 4 4 4 3 4 3 3 4 5 10 14 16 15 15 13 13 10 9 9 4 4 6 6 4 5 15 19 17 5 5 5
8 8 8 9 7 7 5 4 4 4 5 4 4 4 3 4 6 8 15 15 15 12 13 12 8 5 4 7 9 6 8 9 7 5 5 19 1 6
Wind_Direction
271 234 217 242 207 180 210 186 159 140 156 178 140 72 70 46 83 87 94 126 132 129 138 160 135 112 30 11 1 9 351 355 351 353 354 352 346 340
272 232 233 223 239 217 221 238 128 135 133 141 115 135 131 110 109 91 138 142 145 154 163 176 183 74 46 24 20 11 6 360 4 3 9 360 354 349
282 259 251 206 242 197 202 198 172 130 125 109 98 131 120 129 115 124 119 119 172 189 188 187 173 88 59 35 22 20 10 7 11 359 357 354 352 354
237 260 283 63 193 287 205 222 245 135 127 144 141 160 145 153 151 154 173 172 219 204 210 191 170 108 39 16 22 12 352 1 2 346 336 339 348 348
250 214 316 314 13 138 248 205 190 172 135 144 146 139 124 152 137 148 206 191 201 211 206 209 207 198 280 327 10 345 340 359 349 335 326 330 342 340
223 252 247 247 285 276 210 226 187 173 129 143 133 147 120 137 145 157 192 196 212 204 220 205 198 218 250 256 315 323 328 354 339 329 322 325 337 331
265 254 246 223 244 242 241 201 165 189 157 151 153 155 148 163 200 171 188 184 218 198 205 221 198 210 260 265 299 315 327 340 342 337 328 335 337 332
291 293 266 242 249 236 208 178 190 175 186 167 168 178 182 166 181 188 172 189 221 189 184 211 186 204 236 229 253 282 323 341 340 351 347 350 6 356
284 276 269 261 254 256 208 196 202 218 250 198 173 177 177 173 176 173 187 192 200 169 149 209 183 218 202 225 227 265 318 338 336 355 7 15 35 12
286 283 276 272 260 244 243 221 217 205 194 262 198 169 192 165 179 183 175 148 76 151 183 188 189 214 173 218 234 264 295 334 336 351 8 10 15 1
273 278 279 282 246 226 220 216 221 215 192 243 88 353 129 148 148 130 157 153 134 199 208 148 195 143 154 228 232 258 284 330 330 4 20 22 10 357
259 264 267 267 265 229 221 224 226 215 208 226 191 190 200 163 169 182 172 172 138 160 204 162 154 147 240 278 212 252 301 338 52 53 48 32 28 35
271 254 263 258 258 254 221 239 223 224 219 236 243 274 171 146 191 186 204 179 157 178 171 139 153 150 122 142 244 248 271 315 68 70 67 58 34 29
264 268 257 260 250 250 224 235 231 202 223 220 216 220 225 198 206 197 208 210 279 167 160 156 139 155 148 147 177 268 309 289 108 92 57 38 62 54
301 297 281 284 290 264 225 232 232 232 232 195 205 205 198 191 182 163 117 94 63 102 152 187 147 143 156 143 160 183 135 297 95 98 68 54 26 14
315 313 304 267 260 249 237 220 200 217 210 223 208 195 182 168 176 170 152 152 105 102 41 99 139 120 139 114 131 152 139 136 96 80 90 67 39 30
303 292 302 294 238 230 227 211 197 213 214 217 207 203 190 185 185 173 160 157 144 157 136 75 74 86 71 115 123 138 128 100 115 119 80 91 55 26
265 263 278 282 261 232 213 210 188 209 222 204 212 213 205 199 189 179 166 178 152 158 137 145 139 106 55 42 40 145 101 112 119 101 103 92 81 36
227 249 257 262 276 260 214 206 198 186 217 210 211 211 213 206 193 179 186 175 164 157 158 155 163 149 137 141 286 23 134 118 120 83 48 78 90 55
230 237 242 244 255 282 222 199 188 167 214 207 210 208 222 212 197 193 184 179 169 157 160 170 176 177 161 169 158 174 17 128 123 104 107 82 86 121
222 231 236 227 239 252 252 216 189 189 186 210 210 216 220 238 216 204 181 173 167 163 170 182 184 126 114 99 93 84 356 57 109 140 142 96 91 45
218 229 234 232 221 230 217 222 214 184 198 212 210 220 242 240 248 232 188 167 173 172 178 144 144 139 114 118 147 138 122 81 87 88 58 62 153 162
218 220 229 235 228 225 218 216 199 198 196 200 205 200 217 250 246 283 182 169 169 160 154 146 147 139 104 143 143 146 128 123 139 116 38 6 175 81